Regional Weather Roundup
Issued by NWS Albany, NY

Home | Current Version | Previous Version | Graphics & Text | Print | Product List | Glossary Off
Versions: 1 2 3 4 5 6 7 8 9 10 11 12 13 14 15 16 17 18 19 20 21 22 23 24 25 26 27 28 29 30 31 32 33 34 35 36 37 38 39 40 41 42 43 44 45 46 47 48 49 50

000
ASUS41 KALY 310210
RWRALY

NEW YORK STATE HOURLY WEATHER ROUNDUP
NATIONAL WEATHER SERVICE ALBANY NY
1000 PM EDT SAT AUG 30 2014

NOTE: "FAIR" INDICATES FEW OR NO CLOUDS BELOW 12,000 FEET WITH NO
SIGNIFICANT WEATHER AND/OR NO OBSTRUCTIONS TO VISIBILITY.

NYZ032-033-038>043-046>054-057>066-NYZ062>081-310300-
EAST


CITY           SKY/WX    TMP DP  RH WIND       PRES   REMARKS
ALBANY         MOCLDY    72  61  68 S8        30.10S
GLENS FALLS    MOCLDY    68  60  75 S3        30.08S
POUGHKEEPSIE   CLOUDY    73  64  73 CALM      30.14S
NEWBURGH       CLOUDY    72  64  78 VRB5      30.17S
MONTGOMERY     CLOUDY    70  63  78 CALM      30.15S
WHITE PLAINS   MOCLDY    72  65  78 S7        30.17S
ISLIP          CLOUDY    72  64  76 S10       30.16F
NEW YORK CITY  CLOUDY    74  65  73 S12       30.16S
CENTRAL PARK   CLOUDY    74  63  68 VRB6      30.19S
$$

NYZ005>009-017-018-044>046-055-056-310300-
CENTRAL


CITY           SKY/WX    TMP DP  RH WIND       PRES   REMARKS
FULTON         MOCLDY    73  64  73 VRB6      30.01R
SYRACUSE       MOCLDY    74  64  71 SE7       30.01S
ROME           MOCLDY    70  64  81 SE6       30.07R
ELMIRA         CLOUDY    73  66  78 S5        30.09R
BINGHAMTON     CLOUDY    68  63  84 S8        30.13S
MONTICELLO     CLOUDY    66  63  88 CALM      30.19F
$$

NYZ026>034-041>043-310300-
NORTH


CITY           SKY/WX    TMP DP  RH WIND       PRES   REMARKS
WATERTOWN      LGT RAIN  73  63  70 S8        29.98R
FORT DRUM      NOT AVBL
MASSENA        MOCLDY    74  63  68 S12       29.95S
SARANAC LAKE   PTCLDY    68  59  73 SW6       30.05R
PLATTSBURGH    MOCLDY    70  61  73 S6        29.99S
$$

NYZ001>004-010>016-019>021-310300-
WEST


CITY           SKY/WX    TMP DP  RH WIND       PRES   REMARKS
NIAGARA FALLS  CLOUDY    79  68  69 S10       29.93S
BUFFALO        CLOUDY    80  67  64 S13       29.95S
DUNKIRK        CLOUDY    81  68  64 S13G23    29.96S
JAMESTOWN      CLOUDY    73  66  78 S7        30.05S
WELLSVILLE     MOCLDY    70  65  84 S8        30.12R
ROCHESTER      MOCLDY    78  68  71 S9        29.97R
PENN YAN       PTCLDY    72  65  78 S12       30.05S
$$

             KEY
       WCI = WIND CHILL INDEX
       VSB = VISIBILITY
       HX  = HEAT INDEX
$$


USA.gov is the U.S. government's official web portal to all federal, state and local government web resources and services.